Weather in Otradnoe

Russia / Voronezh Oblast     51°39′57″N   39°20′11″E
temp.,
°C
wind,
m/s
gust,
m/s
humid.,
%
clouds,
%
prec.,
mm/h
press.,
hPa
HPBL,
m
2 july, sat
sat200:00+10n49680 0.0 1019614
03:00+9nnw411715 0.0 1019400
06:00+11nnw514660 0.0 1019500
09:00+17n611532 0.0 10191188
12:00+22n7104012 0.0 10182152
15:00+23n7103733 0.0 10172471
18:00+22n69410 0.0 10171964
21:00+18nnw411610 0.0 1018593
3 july, sun
sun300:00+16nnw412661 0.0 1017407
03:00+15nnw411685 0.0 1017276
06:00+16nnw396347 0.0 1017278
09:00+22nnw47505 0.0 1016784
12:00+24nw574430 0.0 10161186
15:00+25nnw365119 0.3 10151293
18:00+25nnw37544 0.8 10141332
21:00+20nne36740 1.1 1015213
4 july, mon
mon400:00+18nne12808 0.0 101642
03:00+18wnw247791 0.0 1016127
06:00+19nw257610 0.0 1016196
09:00+24nne23530 0.0 1017790
12:00+28ene35400 0.0 10162009
15:00+28ne443889 0.0 10162473
18:00+25e234993 0.0 1017722
21:00+22se115991 0.0 101750
5 july, tue
tue500:00+20ssw236762 0.0 101890
03:00+19wnw24710 0.0 1019124
06:00+20wnw116913 0.0 1019104
09:00+26wnw11470 0.0 1019713
12:00+29nw223235 0.0 10192664
15:00+28w223799 0.0 10181580
18:00+27sw34432 0.0 1018592
21:00+23wsw11583 0.0 101816
6 july, wed
wed600:00+21w116215 0.0 101911
03:00+20w226112 0.0 101936
06:00+21sw13565 0.0 1019107
09:00+27wsw23400 0.0 1019711
12:00+30sw33320 0.0 10192417
15:00+30ssw44315 0.0 10172554
18:00+29sw443780 0.0 10171863
21:00+25s22495 0.0 101728